IRIDIUM 175

Last updated on Tue Sep 22 2026 00:03:21 GMT+0000 (Coordinated Universal Time)

1 43928U 19002G 26264.27555985 .00000122 00000+0 29974-4 0 9993 2 43928 86.4471 250.3334 0000939 256.9061 103.2035 14.43646675412847
UTC large
Height (km)
Speed (km/s)
/
Latitude / Longitude
Inclination (degrees)
Orbital Period (minutes)
Azimuth
Elevation
Range (km)
Doppler Factor

Next 0 passes for location: London (51.5072 / 0.1276)

No passes found over London.
IRIDIUM 175